Lancaster, PA

3:09 AM EDT on May 26, 2018 (GMT -0400)
Lancaster

Weather History for KLNS - August, 2012

Change the Weather History Date:

Friday, August 31, 2012

  Actual Average Record
Temperature  
Mean Temperature 73 °F -  
Max Temperature 90 °F 83 °F 96 °F (1991)
Min Temperature 57 °F 61 °F 40 °F (1986)
Cooling Degree Days 8    
Growing Degree Days 23 (Base 50)    
Moisture  
Dew Point 59 °F    
Average Humidity 65    
Maximum Humidity 93    
Minimum Humidity 34    
Precipitation  
Precipitation 0.00 in - - ()
Sea Level Pressure  
Sea Level Pressure 30.05 in    
Wind  
Wind Speed 3 mph (West)    
Max Wind Speed 14 mph    
Max Gust Speed 20 mph    
Visibility 8 miles    
Events      
Averages and records for this station are not official NWS values.
T = Trace of Precipitation, MM = Missing Value Source: NWS Daily Summary

Daily Weather History Graph

Daily Weather History Graph

Search for Another Location

Airport or City:

Astronomy

Aug. 31, 2012 Rise Set
Actual Time 6:32 AM EDT 7:37 PM EDT
Civil Twilight 6:04 AM EDT 8:05 PM EDT
Nautical Twilight 5:31 AM EDT 8:38 PM EDT
Astronomical Twilight 4:56 AM EDT 9:13 PM EDT
Moon 7:22 PM EDT (8/31) 6:35 AM EDT (8/31)
Length of Visible Light 14h 00m
Length of Day
13h 05m
Full, 100% of the Moon is Illuminated
Aug 31
Full
Sep 8
Last Quarter
Sep 15
New
Sep 22
First Quarter
Sep 29
Full

Hourly Weather History & Observations

Time (EDT) Temp. Heat Index Dew Point Humidity Pressure Visibility Wind Dir Wind Speed Gust Speed Precip Events Conditions
12:53 AM 62.1 °F - 57.0 °F 84% 30.10 in 8.0 mi Calm Calm - N/A   Clear
1:53 AM 62.1 °F - 57.0 °F 84% 30.09 in 7.0 mi Calm Calm - N/A   Clear
2:53 AM 61.0 °F - 57.0 °F 87% 30.08 in 6.0 mi Calm Calm - N/A   Clear
3:53 AM 61.0 °F - 57.0 °F 87% 30.08 in 6.0 mi Calm Calm - N/A   Clear
4:53 AM 60.1 °F - 57.0 °F 90% 30.08 in 5.0 mi Calm Calm - N/A   Clear
5:53 AM 57.9 °F - 55.9 °F 93% 30.07 in 4.0 mi Calm Calm - N/A   Clear
6:53 AM 57.9 °F - 55.9 °F 93% 30.09 in 2.5 mi Calm Calm - N/A   Clear
7:00 AM 60.8 °F - 55.4 °F 82% 30.10 in 4.0 mi Calm Calm - N/A   Clear
7:53 AM 63.0 °F - 59.0 °F 87% 30.10 in 4.0 mi Calm Calm - N/A   Clear
8:53 AM 68.0 °F - 62.1 °F 81% 30.10 in 4.0 mi WNW 3.5 mph - N/A   Haze
9:53 AM 73.9 °F - 64.0 °F 71% 30.11 in 4.0 mi West 6.9 mph - N/A   Haze
10:53 AM 80.1 °F 81.7 °F 64.0 °F 58% 30.10 in 8.0 mi West 8.1 mph - N/A   Clear
11:53 AM 84.9 °F 84.4 °F 59.0 °F 41% 30.08 in 10.0 mi West 11.5 mph - N/A   Clear
12:53 PM 86.0 °F 84.9 °F 57.0 °F 37% 30.06 in 10.0 mi WNW 10.4 mph 18.4 mph N/A   Clear
1:53 PM 88.0 °F 86.5 °F 55.9 °F 34% 30.04 in 10.0 mi WNW 13.8 mph - N/A   Clear
2:53 PM 88.0 °F 86.5 °F 55.9 °F 34% 30.02 in 10.0 mi West 13.8 mph 19.6 mph N/A   Clear
3:53 PM 89.1 °F 88.0 °F 57.9 °F 35% 30.00 in 10.0 mi West 9.2 mph - N/A   Clear
4:53 PM 89.1 °F 88.0 °F 57.9 °F 35% 29.99 in 10.0 mi West 9.2 mph - N/A   Clear
5:53 PM 88.0 °F 86.9 °F 57.9 °F 36% 29.98 in 10.0 mi West 9.2 mph - N/A   Clear
6:53 PM 86.0 °F 85.4 °F 59.0 °F 40% 29.97 in 10.0 mi SW 8.1 mph - N/A   Clear
8:53 PM 77.0 °F - 62.1 °F 60% 29.99 in 10.0 mi Calm Calm - N/A   Clear
9:53 PM 73.9 °F - 63.0 °F 68% 29.99 in 10.0 mi West 3.5 mph - N/A   Clear
10:53 PM 73.9 °F - 63.0 °F 68% 29.99 in 10.0 mi West 3.5 mph - N/A   Clear
11:53 PM 73.0 °F - 63.0 °F 71% 29.99 in 8.0 mi Calm Calm - N/A   Clear